Weather in Pocheon

South Korea     37°54′10″N   127°12′10″E
temp.,
°C
wind,
m/s
gust,
m/s
humid.,
%
clouds,
%
prec.,
mm/h
press.,
hPa
HPBL,
m
13 may, thu
thu1300:00+14ene11680 0.0 101311
03:00+13e11710 0.0 101210
06:00+13e11732 0.0 101310
09:00+20ssw11530 0.0 1012351
12:00+25w22434 0.0 10111220
15:00+26wnw33450 0.0 10101610
18:00+23wnw24610 0.0 1010422
21:00+17w01790 0.0 101211
14 may, fri
fri1400:00+15e11860 0.0 101211
03:00+15ene119271 0.0 101311
06:00+15e119197 0.0 101311
09:00+22s116451 0.0 1013541
12:00+27wsw2146100 0.0 10121483
15:00+28w2242100 0.0 10101885
18:00+26wsw1257100 0.0 100992
21:00+19e117396 0.0 101111
15 may, sat
sat1500:00+18e1175100 0.0 101111
03:00+17e2177100 0.0 101012
06:00+16ese118350 0.0 101012
09:00+23wnw116050 0.0 1010570
12:00+27sw234386 0.0 10081540
15:00+29wsw233795 0.0 10052062
18:00+22w1272100 0.1 1006159
21:00+20wnw1173100 0.1 100721
16 may, sun
sun1600:00+18ne1181100 0.2 100715
03:00+18se1190100 0.6 100619
06:00+18se1192100 0.2 100619
09:00+18se1197100 3.1 100659
12:00+18ene1196100 2.3 100597
15:00+16ne3397100 7.2 1003192
18:00+14ne3497100 4.8 1003224
21:00+12ene3497100 10.4 1004251
17 may, mon
mon1700:00+12ene2498100 8.4 1004246
03:00+11ne2498100 13.2 1003230
06:00+11ne2497100 3.1 1004169
09:00+15ne248461 3.2 1005399
12:00+22ne2356100 0.0 10051129
15:00+21se1164100 0.0 10061023
18:00+18sse2280100 0.0 1008131
21:00+15ese1186100 0.1 100917